User: anonymous   Login
Location: Chiroubles
(46.1812°N, 4.6660°E)
Time: 16:14:54
(UTC+00:00)
Language:

Meteor 2-20 Rocket - Orbit

View from above orbital plane
View from above orbital plane
View from above satellite
View from above satellite

Ground track
Ground track

The orbit data is extracted from the following two-line orbital elements,

1 20827U 90086B   20295.83954089  .00000031  00000-0  14924-4 0  9994
2 20827  82.5297  46.8376 0014046  73.5417 286.7285 13.83900877518693
Epoch (UTC): 21 October 2020 20:08:56
Eccentricity: 0.0014046
inclination: 82.5297°
perigee height: 940 km
apogee height: 960 km
right ascension of ascending node: 46.8376°
argument of perigee: 73.5417°
revolutions per day: 13.83900877
mean anomaly at epoch: 286.7285°
orbit number at epoch: 51869

The dashed part of the orbit path shows where the satellite is in the earth's shadow,  

DLR